Location: Cheching
(60.0667°N, 164.2167°W)
Time: 23:17:29
(UTC+00:00)

ISS - Visible Passes

Search period start: 19 October 2020 00:00
Search period end: 29 October 2020 00:00
Orbit: 418 x 419 km, 51.6° (Epoch: 19 October)

Date Brightness Start Highest point End Pass type
(mag) Time Alt. Az. Time Alt. Az. Time Alt. Az.
26 Oct -1.0 16:33:19 10° S 16:34:58 13° SSE 16:36:39 10° SE visible
27 Oct -0.9 15:46:38 10° SSE 15:47:30 11° SSE 15:48:21 10° SE visible
27 Oct -1.4 17:20:55 10° SW 17:23:22 19° S 17:25:49 10° SE visible
28 Oct -1.4 16:33:31 10° SSW 16:35:49 17° SSE 16:38:08 10° ESE visible
